contact:dominique.lefevre@mio.osupytheas.fr, maurice.libes@osupytheas.fr, didier.mallarino@osupytheas.fr
Project:EMSO http://www.emso-fr.org/EMSO-France
Depth: 2436.0 m
Title:EMSO Ligure Ouest : Data MII capteur CSTAR
DateTime,Latitude,Longitude,Instrument_Serial,Reference_Counts,Signal_Counts,Corrected_Signal_raw_counts,Calculated_Beam_c_inverse_meters,Internal_thermistor_counts
DateTime,Latitude,Longitude,Instrument_Serial,Reference_Counts,Signal_Counts,Corrected_Signal_raw_counts,Calculated_Beam_c_inverse_meters,Internal_thermistor_counts
2019-08-11T00:01:53,42.805,6.029,CST-1368DR,8349,11684,15433,0.047,551
2019-08-11T00:04:54,42.805,6.029,CST-1368DR,8349,11681,15429,0.048,551
2019-08-11T00:07:56,42.805,6.029,CST-1368DR,8349,11680,15427,0.049,551
2019-08-11T00:10:58,42.805,6.029,CST-1368DR,8349,11683,15432,0.047,551
2019-08-11T00:13:59,42.805,6.029,CST-1368DR,8349,11683,15432,0.047,550
2019-08-11T00:17:01,42.805,6.029,CST-1368DR,8349,11682,15430,0.048,551
2019-08-11T00:20:02,42.805,6.029,CST-1368DR,8349,11682,15430,0.048,551
2019-08-11T00:23:04,42.805,6.029,CST-1368DR,8349,11682,15431,0.048,551
2019-08-11T00:26:06,42.805,6.029,CST-1368DR,8349,11683,15431,0.048,551
2019-08-11T00:29:07,42.805,6.029,CST-1368DR,8349,11682,15430,0.048,551
2019-08-11T00:32:09,42.805,6.029,CST-1368DR,8349,11683,15431,0.048,551
2019-08-11T00:35:11,42.805,6.029,CST-1368DR,8349,11679,15427,0.049,551
2019-08-11T00:38:12,42.805,6.029,CST-1368DR,8349,11681,15429,0.048,551
2019-08-11T00:41:14,42.805,6.029,CST-1368DR,8349,11682,15430,0.048,551
2019-08-11T00:44:16,42.805,6.029,CST-1368DR,8349,11683,15432,0.047,550
2019-08-11T00:47:17,42.805,6.029,CST-1368DR,8349,11682,15430,0.048,551
2019-08-11T00:50:19,42.805,6.029,CST-1368DR,8349,11683,15432,0.047,551
2019-08-11T00:53:20,42.805,6.029,CST-1368DR,8349,11682,15430,0.048,551
2019-08-11T00:56:22,42.805,6.029,CST-1368DR,8349,11678,15425,0.049,551
2019-08-11T00:59:24,42.805,6.029,CST-1368DR,8349,11682,15430,0.048,551
2019-08-11T01:02:25,42.805,6.029,CST-1368DR,8349,11683,15431,0.048,551
2019-08-11T01:05:27,42.805,6.029,CST-1368DR,8349,11683,15431,0.048,551
2019-08-11T01:08:29,42.805,6.029,CST-1368DR,8349,11677,15424,0.049,551
2019-08-11T01:11:30,42.805,6.029,CST-1368DR,8349,11681,15429,0.048,551
2019-08-11T01:14:32,42.805,6.029,CST-1368DR,8349,11682,15430,0.048,551
2019-08-11T01:17:34,42.805,6.029,CST-1368DR,8349,11682,15430,0.048,551
2019-08-11T01:20:35,42.805,6.029,CST-1368DR,8349,11682,15430,0.048,551
2019-08-11T01:23:37,42.805,6.029,CST-1368DR,8349,11682,15430,0.048,551
2019-08-11T01:26:39,42.805,6.029,CST-1368DR,8349,11678,15425,0.049,551
2019-08-11T01:29:40,42.805,6.029,CST-1368DR,8349,11681,15429,0.048,551
2019-08-11T01:32:42,42.805,6.029,CST-1368DR,8349,11681,15429,0.048,551
2019-08-11T01:35:43,42.805,6.029,CST-1368DR,8349,11681,15429,0.048,551
2019-08-11T01:38:45,42.805,6.029,CST-1368DR,8349,11678,15426,0.049,551
2019-08-11T01:41:47,42.805,6.029,CST-1368DR,8349,11681,15429,0.048,551
2019-08-11T01:44:48,42.805,6.029,CST-1368DR,8348,11680,15430,0.048,551
2019-08-11T01:47:50,42.805,6.029,CST-1368DR,8349,11679,15426,0.049,551
2019-08-11T01:50:52,42.805,6.029,CST-1368DR,8348,11679,15428,0.048,551
2019-08-11T01:53:53,42.805,6.029,CST-1368DR,8348,11680,15430,0.048,551
2019-08-11T01:56:55,42.805,6.029,CST-1368DR,8349,11680,15427,0.049,551
2019-08-11T01:59:57,42.805,6.029,CST-1368DR,8348,11679,15428,0.048,551
2019-08-11T02:02:58,42.805,6.029,CST-1368DR,8349,11679,15426,0.049,551
2019-08-11T02:06:00,42.805,6.029,CST-1368DR,8349,11681,15429,0.048,551
2019-08-11T02:09:02,42.805,6.029,CST-1368DR,8348,11681,15430,0.048,551
2019-08-11T02:12:04,42.805,6.029,CST-1368DR,8348,11678,15427,0.049,551
2019-08-11T02:15:06,42.805,6.029,CST-1368DR,8348,11678,15427,0.049,551
2019-08-11T02:18:07,42.805,6.029,CST-1368DR,8348,11680,15429,0.048,551
2019-08-11T02:21:09,42.805,6.029,CST-1368DR,8348,11679,15429,0.048,551
2019-08-11T02:24:11,42.805,6.029,CST-1368DR,8348,11680,15429,0.048,551
2019-08-11T02:27:13,42.805,6.029,CST-1368DR,8348,11678,15427,0.049,550
2019-08-11T02:30:14,42.805,6.029,CST-1368DR,8348,11680,15429,0.048,551
2019-08-11T02:33:16,42.805,6.029,CST-1368DR,8348,11681,15431,0.048,551
2019-08-11T02:36:18,42.805,6.029,CST-1368DR,8348,11680,15429,0.048,551
2019-08-11T02:39:20,42.805,6.029,CST-1368DR,8348,11677,15425,0.049,551
2019-08-11T02:42:22,42.805,6.029,CST-1368DR,8348,11679,15429,0.048,551
2019-08-11T02:45:24,42.805,6.029,CST-1368DR,8348,11681,15431,0.048,551
2019-08-11T02:48:25,42.805,6.029,CST-1368DR,8348,11679,15428,0.048,551
2019-08-11T02:51:27,42.805,6.029,CST-1368DR,8348,11678,15427,0.049,550
2019-08-11T02:54:29,42.805,6.029,CST-1368DR,8348,11678,15426,0.049,550
2019-08-11T02:57:31,42.805,6.029,CST-1368DR,8348,11678,15427,0.049,551
2019-08-11T03:00:33,42.805,6.029,CST-1368DR,8348,11680,15430,0.048,551
2019-08-11T03:03:35,42.805,6.029,CST-1368DR,8341,10967,14499,0.297,551
2019-08-11T03:06:37,42.805,6.029,CST-1368DR,8348,11681,15431,0.048,551
2019-08-11T03:09:38,42.805,6.029,CST-1368DR,8348,11681,15431,0.048,551
2019-08-11T03:12:40,42.805,6.029,CST-1368DR,8348,11679,15428,0.048,551
2019-08-11T03:15:42,42.805,6.029,CST-1368DR,8348,11680,15429,0.048,551
2019-08-11T03:18:44,42.805,6.029,CST-1368DR,8348,11678,15427,0.049,551
2019-08-11T03:21:46,42.805,6.029,CST-1368DR,8348,11680,15429,0.048,551
2019-08-11T03:24:48,42.805,6.029,CST-1368DR,8348,11679,15428,0.048,551
2019-08-11T03:27:50,42.805,6.029,CST-1368DR,8348,11681,15431,0.048,551
2019-08-11T03:30:51,42.805,6.029,CST-1368DR,8348,11681,15431,0.048,551
2019-08-11T03:33:53,42.805,6.029,CST-1368DR,8348,11680,15429,0.048,551
2019-08-11T03:36:55,42.805,6.029,CST-1368DR,8348,11677,15426,0.049,551
2019-08-11T03:39:57,42.805,6.029,CST-1368DR,8348,11679,15428,0.048,551
2019-08-11T03:42:59,42.805,6.029,CST-1368DR,8348,11678,15427,0.049,551
2019-08-11T03:46:01,42.805,6.029,CST-1368DR,8348,11678,15427,0.049,551
2019-08-11T03:49:02,42.805,6.029,CST-1368DR,8348,11676,15424,0.049,551
2019-08-11T03:52:04,42.805,6.029,CST-1368DR,8348,11677,15426,0.049,551
2019-08-11T03:55:06,42.805,6.029,CST-1368DR,8348,11678,15427,0.049,551
2019-08-11T03:58:08,42.805,6.029,CST-1368DR,8348,11679,15428,0.048,551
2019-08-11T04:01:10,42.805,6.029,CST-1368DR,8348,11679,15428,0.048,551
2019-08-11T04:04:12,42.805,6.029,CST-1368DR,8348,11678,15427,0.049,551
2019-08-11T04:07:13,42.805,6.029,CST-1368DR,8348,11679,15428,0.048,551
2019-08-11T04:10:15,42.805,6.029,CST-1368DR,8348,11679,15428,0.048,551
2019-08-11T04:13:17,42.805,6.029,CST-1368DR,8347,11679,15430,0.048,551
2019-08-11T04:16:19,42.805,6.029,CST-1368DR,8347,11680,15431,0.048,551
2019-08-11T04:19:21,42.805,6.029,CST-1368DR,8348,11678,15427,0.049,551
2019-08-11T04:22:23,42.805,6.029,CST-1368DR,8347,11677,15428,0.048,551
2019-08-11T04:25:25,42.805,6.029,CST-1368DR,8347,11678,15429,0.048,551
2019-08-11T04:28:27,42.805,6.029,CST-1368DR,8347,11679,15430,0.048,551
2019-08-11T04:31:28,42.805,6.029,CST-1368DR,8347,11678,15429,0.048,551
2019-08-11T04:34:30,42.805,6.029,CST-1368DR,8347,11678,15429,0.048,551
2019-08-11T04:37:32,42.805,6.029,CST-1368DR,8347,11677,15428,0.048,551
2019-08-11T04:40:34,42.805,6.029,CST-1368DR,8347,11678,15429,0.048,551
2019-08-11T04:43:35,42.805,6.029,CST-1368DR,8347,11677,15428,0.048,551
2019-08-11T04:46:37,42.805,6.029,CST-1368DR,8347,11680,15431,0.048,551
2019-08-11T04:49:39,42.805,6.029,CST-1368DR,8347,11679,15429,0.048,551
2019-08-11T04:52:41,42.805,6.029,CST-1368DR,8347,11675,15425,0.049,551
2019-08-11T04:55:43,42.805,6.029,CST-1368DR,8347,11680,15431,0.048,551
2019-08-11T04:58:45,42.805,6.029,CST-1368DR,8347,11679,15429,0.048,551
2019-08-11T05:01:47,42.805,6.029,CST-1368DR,8347,11679,15429,0.048,551
2019-08-11T05:04:49,42.805,6.029,CST-1368DR,8347,11679,15429,0.048,551
2019-08-11T05:07:50,42.805,6.029,CST-1368DR,8347,11679,15430,0.048,551
2019-08-11T05:10:52,42.805,6.029,CST-1368DR,8347,11679,15429,0.048,551
2019-08-11T05:13:54,42.805,6.029,CST-1368DR,8347,11677,15427,0.049,551
2019-08-11T05:16:56,42.805,6.029,CST-1368DR,8347,11674,15424,0.049,551
2019-08-11T05:19:58,42.805,6.029,CST-1368DR,8347,11679,15430,0.048,551
2019-08-11T05:23:00,42.805,6.029,CST-1368DR,8347,11679,15430,0.048,551
2019-08-11T05:26:02,42.805,6.029,CST-1368DR,8347,11679,15430,0.048,551
2019-08-11T05:29:03,42.805,6.029,CST-1368DR,8347,11679,15430,0.048,550
2019-08-11T05:32:05,42.805,6.029,CST-1368DR,8347,11678,15429,0.048,551
2019-08-11T05:35:07,42.805,6.029,CST-1368DR,8347,11677,15427,0.049,551
2019-08-11T05:38:09,42.805,6.029,CST-1368DR,8347,11679,15430,0.048,551
2019-08-11T05:41:11,42.805,6.029,CST-1368DR,8347,11679,15430,0.048,551
2019-08-11T05:44:13,42.805,6.029,CST-1368DR,8347,11678,15428,0.048,551
2019-08-11T05:47:15,42.805,6.029,CST-1368DR,8347,11678,15429,0.048,551
2019-08-11T05:50:16,42.805,6.029,CST-1368DR,8347,11678,15428,0.048,551
2019-08-11T05:53:18,42.805,6.029,CST-1368DR,8347,11678,15429,0.048,551
2019-08-11T05:56:20,42.805,6.029,CST-1368DR,8347,11677,15428,0.048,551
2019-08-11T05:59:22,42.805,6.029,CST-1368DR,8347,11678,15428,0.048,551
2019-08-11T06:02:24,42.805,6.029,CST-1368DR,8347,11677,15427,0.049,551
2019-08-11T06:05:26,42.805,6.029,CST-1368DR,8347,11678,15428,0.048,551
2019-08-11T06:08:28,42.805,6.029,CST-1368DR,8347,11678,15428,0.048,551
2019-08-11T06:11:29,42.805,6.029,CST-1368DR,8347,11678,15428,0.048,551
2019-08-11T06:14:31,42.805,6.029,CST-1368DR,8347,11679,15430,0.048,551
2019-08-11T06:17:33,42.805,6.029,CST-1368DR,8347,11678,15428,0.048,551
2019-08-11T06:20:35,42.805,6.029,CST-1368DR,8347,11678,15429,0.048,551
2019-08-11T06:23:37,42.805,6.029,CST-1368DR,8347,11679,15430,0.048,551
2019-08-11T06:26:39,42.805,6.029,CST-1368DR,8347,11679,15430,0.048,551
2019-08-11T06:29:41,42.805,6.029,CST-1368DR,8347,11679,15429,0.048,551
2019-08-11T06:32:43,42.805,6.029,CST-1368DR,8346,11679,15431,0.048,551
2019-08-11T06:35:44,42.805,6.029,CST-1368DR,8346,11678,15430,0.048,551
2019-08-11T06:38:46,42.805,6.029,CST-1368DR,8346,11678,15430,0.048,551
2019-08-11T06:41:48,42.805,6.029,CST-1368DR,8346,11679,15431,0.048,551
2019-08-11T06:44:50,42.805,6.029,CST-1368DR,8346,11678,15430,0.048,551
2019-08-11T06:47:52,42.805,6.029,CST-1368DR,8346,11677,15429,0.048,551
2019-08-11T06:50:53,42.805,6.029,CST-1368DR,8346,11678,15430,0.048,551
2019-08-11T06:53:55,42.805,6.029,CST-1368DR,8346,11678,15430,0.048,551
2019-08-11T06:56:57,42.805,6.029,CST-1368DR,8346,11677,15429,0.048,551
2019-08-11T06:59:59,42.805,6.029,CST-1368DR,8346,11677,15429,0.048,550
2019-08-11T07:03:01,42.805,6.029,CST-1368DR,8346,11676,15428,0.048,551
2019-08-11T07:06:03,42.805,6.029,CST-1368DR,8346,11678,15430,0.048,551
2019-08-11T07:09:04,42.805,6.029,CST-1368DR,8346,11678,15430,0.048,551
2019-08-11T07:12:06,42.805,6.029,CST-1368DR,8346,11678,15430,0.048,551
2019-08-11T07:15:08,42.805,6.029,CST-1368DR,8346,11677,15428,0.048,551
2019-08-11T07:18:10,42.805,6.029,CST-1368DR,8346,11678,15430,0.048,551
2019-08-11T07:21:12,42.805,6.029,CST-1368DR,8346,11677,15428,0.048,551
2019-08-11T07:24:14,42.805,6.029,CST-1368DR,8346,11678,15430,0.048,551
2019-08-11T07:27:16,42.805,6.029,CST-1368DR,8346,11679,15431,0.048,551
2019-08-11T07:30:18,42.805,6.029,CST-1368DR,8346,11677,15429,0.048,551
2019-08-11T07:33:20,42.805,6.029,CST-1368DR,8346,11678,15430,0.048,550
2019-08-11T07:36:22,42.805,6.029,CST-1368DR,8346,11677,15429,0.048,551
2019-08-11T07:39:23,42.805,6.029,CST-1368DR,8346,11678,15430,0.048,551
2019-08-11T07:42:25,42.805,6.029,CST-1368DR,8346,11678,15430,0.048,551
2019-08-11T07:45:27,42.805,6.029,CST-1368DR,8346,11677,15429,0.048,551
2019-08-11T07:48:29,42.805,6.029,CST-1368DR,8346,11678,15430,0.048,551
2019-08-11T07:51:31,42.805,6.029,CST-1368DR,8346,11677,15429,0.048,551
2019-08-11T07:54:33,42.805,6.029,CST-1368DR,8346,11679,15431,0.048,551
2019-08-11T07:57:34,42.805,6.029,CST-1368DR,8346,11679,15431,0.048,551
2019-08-11T08:00:36,42.805,6.029,CST-1368DR,8346,11675,15427,0.049,550
2019-08-11T08:03:38,42.805,6.029,CST-1368DR,8346,11678,15430,0.048,550
2019-08-11T08:06:40,42.805,6.029,CST-1368DR,8346,11670,15419,0.051,551
2019-08-11T08:09:42,42.805,6.029,CST-1368DR,8346,11678,15430,0.048,551
2019-08-11T08:12:44,42.805,6.029,CST-1368DR,8346,11677,15429,0.048,551
2019-08-11T08:15:45,42.805,6.029,CST-1368DR,8346,11678,15430,0.048,551
2019-08-11T08:18:47,42.805,6.029,CST-1368DR,8346,11677,15429,0.048,551
2019-08-11T08:21:49,42.805,6.029,CST-1368DR,8346,11676,15428,0.048,550
2019-08-11T08:24:51,42.805,6.029,CST-1368DR,8346,11678,15430,0.048,551
2019-08-11T08:27:53,42.805,6.029,CST-1368DR,8346,11677,15429,0.048,551
2019-08-11T08:30:55,42.805,6.029,CST-1368DR,8346,11676,15428,0.048,550
2019-08-11T08:33:56,42.805,6.029,CST-1368DR,8346,11678,15431,0.048,551
2019-08-11T08:36:58,42.805,6.029,CST-1368DR,8346,11677,15429,0.048,551
2019-08-11T08:39:59,42.805,6.029,CST-1368DR,8346,11677,15429,0.048,551
2019-08-11T08:43:01,42.805,6.029,CST-1368DR,8346,11678,15430,0.048,551
2019-08-11T08:46:03,42.805,6.029,CST-1368DR,8346,11678,15430,0.048,551
2019-08-11T08:49:04,42.805,6.029,CST-1368DR,8346,11674,15425,0.049,551
2019-08-11T08:52:06,42.805,6.029,CST-1368DR,8346,11676,15428,0.048,551
2019-08-11T08:55:08,42.805,6.029,CST-1368DR,8346,11677,15428,0.048,551
2019-08-11T08:58:09,42.805,6.029,CST-1368DR,8345,11678,15432,0.047,551
2019-08-11T09:01:11,42.805,6.029,CST-1368DR,8346,11678,15430,0.048,550
2019-08-11T09:04:13,42.805,6.029,CST-1368DR,8345,11676,15429,0.048,550
2019-08-11T09:07:14,42.805,6.029,CST-1368DR,8346,11678,15430,0.048,551
2019-08-11T09:10:16,42.805,6.029,CST-1368DR,8345,11677,15431,0.048,551
2019-08-11T09:13:17,42.805,6.029,CST-1368DR,8345,11677,15430,0.048,551
2019-08-11T09:16:19,42.805,6.029,CST-1368DR,8345,11677,15431,0.048,551
2019-08-11T09:19:21,42.805,6.029,CST-1368DR,8345,11678,15432,0.047,551
2019-08-11T09:22:22,42.805,6.029,CST-1368DR,8345,11675,15428,0.048,551
2019-08-11T09:25:24,42.805,6.029,CST-1368DR,8345,11677,15431,0.048,550
2019-08-11T09:28:26,42.805,6.029,CST-1368DR,8345,11677,15431,0.048,551
2019-08-11T09:31:27,42.805,6.029,CST-1368DR,8345,11676,15430,0.048,551
2019-08-11T09:34:29,42.805,6.029,CST-1368DR,8345,11672,15424,0.049,551
2019-08-11T09:37:31,42.805,6.029,CST-1368DR,8345,11673,15425,0.049,551
2019-08-11T09:40:32,42.805,6.029,CST-1368DR,8345,11675,15428,0.048,551
2019-08-11T09:43:34,42.805,6.029,CST-1368DR,8345,11675,15428,0.048,551
2019-08-11T09:46:35,42.805,6.029,CST-1368DR,8345,11677,15431,0.048,551
2019-08-11T09:49:37,42.805,6.029,CST-1368DR,8345,11677,15431,0.048,551
2019-08-11T09:52:39,42.805,6.029,CST-1368DR,8345,11677,15431,0.048,550
2019-08-11T09:55:40,42.805,6.029,CST-1368DR,8345,11676,15429,0.048,551
2019-08-11T09:58:42,42.805,6.029,CST-1368DR,8345,11672,15424,0.049,551
2019-08-11T10:01:44,42.805,6.029,CST-1368DR,8345,11676,15429,0.048,551
2019-08-11T10:04:45,42.805,6.029,CST-1368DR,8345,11677,15431,0.048,551
2019-08-11T10:07:47,42.805,6.029,CST-1368DR,8345,11676,15430,0.048,550
2019-08-11T10:10:49,42.805,6.029,CST-1368DR,8345,11674,15427,0.049,550
2019-08-11T10:13:50,42.805,6.029,CST-1368DR,8345,11676,15430,0.048,551
2019-08-11T10:16:52,42.805,6.029,CST-1368DR,8345,11676,15429,0.048,551
2019-08-11T10:19:53,42.805,6.029,CST-1368DR,8345,11676,15429,0.048,550
2019-08-11T10:22:55,42.805,6.029,CST-1368DR,8345,11677,15431,0.048,551
2019-08-11T10:25:57,42.805,6.029,CST-1368DR,8345,11676,15429,0.048,551
2019-08-11T10:28:58,42.805,6.029,CST-1368DR,8345,11677,15431,0.048,551
2019-08-11T10:32:00,42.805,6.029,CST-1368DR,8345,11674,15427,0.049,551
2019-08-11T10:35:02,42.805,6.029,CST-1368DR,8345,11675,15428,0.048,551
2019-08-11T10:38:03,42.805,6.029,CST-1368DR,8345,11675,15427,0.049,551
2019-08-11T10:41:05,42.805,6.029,CST-1368DR,8344,11676,15431,0.048,551
2019-08-11T10:44:06,42.805,6.029,CST-1368DR,8344,11676,15430,0.048,550
2019-08-11T10:47:08,42.805,6.029,CST-1368DR,8345,11676,15429,0.048,551
2019-08-11T10:50:10,42.805,6.029,CST-1368DR,8344,11652,15399,0.056,551
2019-08-11T10:53:11,42.805,6.029,CST-1368DR,8344,11674,15428,0.048,551
2019-08-11T10:56:13,42.805,6.029,CST-1368DR,8344,11671,15424,0.049,551
2019-08-11T10:59:15,42.805,6.029,CST-1368DR,8344,11669,15421,0.050,551
2019-08-11T11:02:16,42.805,6.029,CST-1368DR,8344,11675,15429,0.048,551
2019-08-11T11:05:18,42.805,6.029,CST-1368DR,8344,11674,15428,0.048,551
2019-08-11T11:08:20,42.805,6.029,CST-1368DR,8344,11674,15429,0.048,551
2019-08-11T11:11:21,42.805,6.029,CST-1368DR,8344,11672,15425,0.049,551
2019-08-11T11:14:23,42.805,6.029,CST-1368DR,8344,11676,15431,0.048,551
2019-08-11T11:17:24,42.805,6.029,CST-1368DR,8344,11675,15429,0.048,551
2019-08-11T11:20:26,42.805,6.029,CST-1368DR,8344,11676,15431,0.048,551
2019-08-11T11:23:28,42.805,6.029,CST-1368DR,8344,11675,15430,0.048,551
2019-08-11T11:26:29,42.805,6.029,CST-1368DR,8344,11674,15428,0.048,550
2019-08-11T11:29:31,42.805,6.029,CST-1368DR,8344,11673,15427,0.049,551
2019-08-11T11:32:33,42.805,6.029,CST-1368DR,8344,11674,15428,0.048,551
2019-08-11T11:35:34,42.805,6.029,CST-1368DR,8344,11673,15427,0.049,551
2019-08-11T11:38:36,42.805,6.029,CST-1368DR,8344,11674,15428,0.048,551
2019-08-11T11:41:38,42.805,6.029,CST-1368DR,8344,11675,15430,0.048,551
2019-08-11T11:44:39,42.805,6.029,CST-1368DR,8344,11676,15430,0.048,551
2019-08-11T11:47:41,42.805,6.029,CST-1368DR,8344,11675,15429,0.048,550
2019-08-11T11:50:43,42.805,6.029,CST-1368DR,8344,11674,15428,0.048,551
2019-08-11T11:53:44,42.805,6.029,CST-1368DR,8344,11672,15425,0.049,551
2019-08-11T11:56:46,42.805,6.029,CST-1368DR,8344,11674,15429,0.048,551
2019-08-11T11:59:48,42.805,6.029,CST-1368DR,8344,11673,15427,0.049,551
2019-08-11T12:02:49,42.805,6.029,CST-1368DR,8344,11671,15424,0.049,551
2019-08-11T12:05:51,42.805,6.029,CST-1368DR,8344,11676,15430,0.048,551
2019-08-11T12:08:52,42.805,6.029,CST-1368DR,8344,11676,15430,0.048,551
2019-08-11T12:11:54,42.805,6.029,CST-1368DR,8344,11675,15429,0.048,551
2019-08-11T12:14:56,42.805,6.029,CST-1368DR,8344,11676,15431,0.048,551
2019-08-11T12:17:57,42.805,6.029,CST-1368DR,8344,11675,15430,0.048,551
2019-08-11T12:20:59,42.805,6.029,CST-1368DR,8344,11675,15429,0.048,551
2019-08-11T12:24:01,42.805,6.029,CST-1368DR,8344,11674,15429,0.048,551
2019-08-11T12:27:02,42.805,6.029,CST-1368DR,8344,11675,15429,0.048,551
2019-08-11T12:30:04,42.805,6.029,CST-1368DR,8344,11676,15430,0.048,551
2019-08-11T12:33:05,42.805,6.029,CST-1368DR,8344,11674,15428,0.048,551
2019-08-11T12:36:07,42.805,6.029,CST-1368DR,8344,11675,15430,0.048,551
2019-08-11T12:39:09,42.805,6.029,CST-1368DR,8344,11672,15426,0.049,551
2019-08-11T12:42:10,42.805,6.029,CST-1368DR,8344,11674,15429,0.048,551
2019-08-11T12:45:12,42.805,6.029,CST-1368DR,8344,11670,15423,0.050,551
2019-08-11T12:48:14,42.805,6.029,CST-1368DR,8344,11671,15424,0.049,551
2019-08-11T12:51:15,42.805,6.029,CST-1368DR,8344,11674,15428,0.048,550
2019-08-11T12:54:17,42.805,6.029,CST-1368DR,8344,11670,15422,0.050,551
2019-08-11T12:57:19,42.805,6.029,CST-1368DR,8344,11670,15423,0.050,551
2019-08-11T13:00:20,42.805,6.029,CST-1368DR,8344,11672,15426,0.049,551
2019-08-11T13:03:22,42.805,6.029,CST-1368DR,8344,11672,15426,0.049,551
2019-08-11T13:06:24,42.805,6.029,CST-1368DR,8344,11671,15424,0.049,551
2019-08-11T13:09:25,42.805,6.029,CST-1368DR,8344,11674,15428,0.048,551
2019-08-11T13:12:27,42.805,6.029,CST-1368DR,8344,11673,15426,0.049,551
2019-08-11T13:15:29,42.805,6.029,CST-1368DR,8343,11673,15428,0.048,550
2019-08-11T13:18:31,42.805,6.029,CST-1368DR,8343,11675,15431,0.048,550
2019-08-11T13:21:33,42.805,6.029,CST-1368DR,8343,11674,15430,0.048,550
2019-08-11T13:24:34,42.805,6.029,CST-1368DR,8343,11665,15418,0.051,551
2019-08-11T13:27:36,42.805,6.029,CST-1368DR,8343,11669,15424,0.049,551
2019-08-11T13:30:38,42.805,6.029,CST-1368DR,8343,11672,15427,0.049,551
2019-08-11T13:33:40,42.805,6.029,CST-1368DR,8343,11672,15428,0.048,551
2019-08-11T13:36:41,42.805,6.029,CST-1368DR,8343,11674,15430,0.048,551
2019-08-11T13:39:43,42.805,6.029,CST-1368DR,8343,11675,15431,0.048,551
2019-08-11T13:42:45,42.805,6.029,CST-1368DR,8343,11675,15431,0.048,551
2019-08-11T13:45:47,42.805,6.029,CST-1368DR,8343,11675,15431,0.048,551
2019-08-11T13:48:49,42.805,6.029,CST-1368DR,8343,11673,15429,0.048,551
2019-08-11T13:51:50,42.805,6.029,CST-1368DR,8343,11673,15428,0.048,551
2019-08-11T13:54:52,42.805,6.029,CST-1368DR,8343,11676,15432,0.047,551
2019-08-11T13:57:54,42.805,6.029,CST-1368DR,8343,11674,15430,0.048,551
2019-08-11T14:00:56,42.805,6.029,CST-1368DR,8343,11673,15429,0.048,551
2019-08-11T14:03:58,42.805,6.029,CST-1368DR,8343,11673,15429,0.048,551
2019-08-11T14:06:59,42.805,6.029,CST-1368DR,8343,11675,15431,0.048,551
2019-08-11T14:10:01,42.805,6.029,CST-1368DR,8343,11674,15430,0.048,551
2019-08-11T14:13:03,42.805,6.029,CST-1368DR,8343,11675,15431,0.048,551
2019-08-11T14:16:05,42.805,6.029,CST-1368DR,8343,11673,15429,0.048,551
2019-08-11T14:19:07,42.805,6.029,CST-1368DR,8343,11672,15427,0.049,551
2019-08-11T14:22:08,42.805,6.029,CST-1368DR,8343,11671,15427,0.049,551
2019-08-11T14:25:10,42.805,6.029,CST-1368DR,8343,11660,15411,0.053,551
2019-08-11T14:28:12,42.805,6.029,CST-1368DR,8343,11667,15421,0.050,550
2019-08-11T14:31:14,42.805,6.029,CST-1368DR,8343,11671,15426,0.049,551
2019-08-11T14:34:15,42.805,6.029,CST-1368DR,8343,11673,15429,0.048,551
2019-08-11T14:37:17,42.805,6.029,CST-1368DR,8343,11670,15425,0.049,550
2019-08-11T14:40:19,42.805,6.029,CST-1368DR,8343,11674,15430,0.048,551
2019-08-11T14:43:21,42.805,6.029,CST-1368DR,8343,11675,15431,0.048,551
2019-08-11T14:46:22,42.805,6.029,CST-1368DR,8343,11672,15427,0.049,551
2019-08-11T14:49:24,42.805,6.029,CST-1368DR,8343,11673,15429,0.048,551
2019-08-11T14:52:26,42.805,6.029,CST-1368DR,8343,11675,15431,0.048,550
2019-08-11T14:55:28,42.805,6.029,CST-1368DR,8343,11673,15428,0.048,551
2019-08-11T14:58:30,42.805,6.029,CST-1368DR,8343,11673,15429,0.048,551
2019-08-11T15:01:32,42.805,6.029,CST-1368DR,8343,11672,15427,0.049,551
2019-08-11T15:04:33,42.805,6.029,CST-1368DR,8343,11666,15420,0.051,551
2019-08-11T15:07:35,42.805,6.029,CST-1368DR,8343,11674,15430,0.048,551
2019-08-11T15:10:37,42.805,6.029,CST-1368DR,8343,11675,15431,0.048,551
2019-08-11T15:13:39,42.805,6.029,CST-1368DR,8343,11674,15430,0.048,551
2019-08-11T15:16:40,42.805,6.029,CST-1368DR,8343,11673,15429,0.048,550
2019-08-11T15:19:42,42.805,6.029,CST-1368DR,8343,11673,15429,0.048,551
2019-08-11T15:22:44,42.805,6.029,CST-1368DR,8343,11673,15428,0.048,551
2019-08-11T15:25:46,42.805,6.029,CST-1368DR,8343,11673,15428,0.048,550
2019-08-11T15:28:48,42.805,6.029,CST-1368DR,8342,11673,15430,0.048,551
2019-08-11T15:31:49,42.805,6.029,CST-1368DR,8342,11671,15428,0.048,551
2019-08-11T15:34:51,42.805,6.029,CST-1368DR,8342,11667,15423,0.050,550
2019-08-11T15:37:53,42.805,6.029,CST-1368DR,8342,11673,15431,0.048,551
2019-08-11T15:40:55,42.805,6.029,CST-1368DR,8342,11672,15430,0.048,550
2019-08-11T15:43:57,42.805,6.029,CST-1368DR,8342,11674,15432,0.047,551
2019-08-11T15:46:58,42.805,6.029,CST-1368DR,8342,11673,15431,0.048,551
2019-08-11T15:50:00,42.805,6.029,CST-1368DR,8342,11673,15430,0.048,551
2019-08-11T15:53:02,42.805,6.029,CST-1368DR,8342,11675,15433,0.047,550
2019-08-11T15:56:04,42.805,6.029,CST-1368DR,8342,11674,15432,0.047,551
2019-08-11T15:59:06,42.805,6.029,CST-1368DR,8342,11674,15432,0.047,551
2019-08-11T16:02:08,42.805,6.029,CST-1368DR,8342,11674,15432,0.047,551
2019-08-11T16:05:10,42.805,6.029,CST-1368DR,8342,11672,15429,0.048,551
2019-08-11T16:08:11,42.805,6.029,CST-1368DR,8342,11672,15430,0.048,551
2019-08-11T16:11:13,42.805,6.029,CST-1368DR,8342,11668,15423,0.050,551
2019-08-11T16:14:15,42.805,6.029,CST-1368DR,8342,11672,15430,0.048,551
2019-08-11T16:17:17,42.805,6.029,CST-1368DR,8341,11670,15428,0.048,551
2019-08-11T16:20:19,42.805,6.029,CST-1368DR,8341,11675,15434,0.047,551
2019-08-11T16:23:20,42.805,6.029,CST-1368DR,8341,11673,15432,0.047,550
2019-08-11T16:26:22,42.805,6.029,CST-1368DR,8341,11672,15431,0.048,550
2019-08-11T16:29:24,42.805,6.029,CST-1368DR,8341,11667,15424,0.049,551
2019-08-11T16:32:26,42.805,6.029,CST-1368DR,8341,11667,15424,0.049,551
2019-08-11T16:35:28,42.805,6.029,CST-1368DR,8341,11670,15428,0.048,551
2019-08-11T16:38:29,42.805,6.029,CST-1368DR,8341,11670,15429,0.048,551